When you browse on this site, cookies collect data to enhance your experience and personalize the content and advertising you see.
Visit our Privacy Policy to learn more. By continuing to use the site, you agree to this use of cookies and data.
EN

Hourly Weather Gol

Today, 21 September, Monday

Time Temperature Precipitation Wind Pressure Humidity
00:00 +8°C° 0 mm 2 mps 694 mmHg 90%
01:00 +8°C° 0 mm 2 mps 694 mmHg 89%
02:00 +7°C° 0 mm 2 mps 694 mmHg 90%
03:00 +7°C° 0 mm 2 mps 693 mmHg 90%
04:00 +7°C° 0 mm 2 mps 693 mmHg 90%
05:00 +7°C° 0 mm 2 mps 692 mmHg 90%
06:00 +7°C° 0 mm 3 mps 691 mmHg 90%
07:00 +8°C° 0 mm 3 mps 691 mmHg 90%
08:00 +8°C° 0 mm 4 mps 691 mmHg 82%
09:00 +10°C° 0 mm 5 mps 690 mmHg 74%
10:00 +12°C° 0 mm 5 mps 690 mmHg 66%
11:00 +13°C° 0 mm 6 mps 690 mmHg 61%
12:00 +12°C° 0 mm 7 mps 690 mmHg 56%
13:00 +14°C° 0 mm 7 mps 689 mmHg 50%
14:00 +14°C° 0 mm 7 mps 689 mmHg 49%
15:00 +12°C° 0 mm 7 mps 689 mmHg 47%
16:00 +12°C° 0 mm 7 mps 688 mmHg 46%
17:00 +10°C° 0 mm 6 mps 688 mmHg 53%
18:00 +9°C° 0 mm 5 mps 688 mmHg 60%
19:00 +7°C° 0 mm 4 mps 687 mmHg 67%
20:00 +7°C° 0 mm 4 mps 687 mmHg 70%
21:00 +7°C° 0 mm 3 mps 687 mmHg 74%
22:00 +7°C° 0 mm 3 mps 687 mmHg 78%
23:00 +5°C° 0 mm 3 mps 687 mmHg 79%

Tomorrow, 22 September, Tuesday

Time Temperature Precipitation Wind Pressure Humidity
00:00 +6°C° 0 mm 2 mps 687 mmHg 80%
01:00 +5°C° 0 mm 2 mps 687 mmHg 81%
02:00 +6°C° 0 mm 2 mps 686 mmHg 80%
03:00 +6°C° 0 mm 2 mps 686 mmHg 79%
04:00 +6°C° 0 mm 2 mps 686 mmHg 79%
05:00 +6°C° 0 mm 2 mps 686 mmHg 79%
06:00 +7°C° 0 mm 1 mps 686 mmHg 80%
07:00 +7°C° 0 mm 1 mps 686 mmHg 81%
08:00 +8°C° 0 mm 1 mps 686 mmHg 76%
09:00 +10°C° 0 mm 1 mps 686 mmHg 71%
10:00 +11°C° 0 mm 1 mps 686 mmHg 66%
11:00 +12°C° 0 mm 2 mps 685 mmHg 64%
12:00 +14°C° 0 mm 2 mps 685 mmHg 62%
13:00 +14°C° 0 mm 3 mps 685 mmHg 59%
14:00 +14°C° 0 mm 3 mps 685 mmHg 56%
15:00 +14°C° 0 mm 4 mps 684 mmHg 52%
16:00 +14°C° 0 mm 4 mps 683 mmHg 49%
17:00 +12°C° 0 mm 4 mps 683 mmHg 55%
18:00 +10°C° 0 mm 3 mps 682 mmHg 61%
19:00 +8°C° 0 mm 3 mps 682 mmHg 67%
20:00 +8°C° 0 mm 3 mps 682 mmHg 70%
21:00 +7°C° 0 mm 2 mps 682 mmHg 72%
22:00 +7°C° 0 mm 2 mps 682 mmHg 75%
23:00 +7°C° 0 mm 2 mps 682 mmHg 78%

Day after tomorrow, 23 September, Wednesday

Time Temperature Precipitation Wind Pressure Humidity
00:00 +7°C° 0 mm 2 mps 681 mmHg 80%
01:00 +7°C° 0 mm 2 mps 681 mmHg 83%
02:00 +7°C° 0 mm 2 mps 681 mmHg 84%
03:00 +8°C° 0 mm 2 mps 680 mmHg 86%
04:00 +8°C° 0 mm 2 mps 680 mmHg 87%
05:00 +8°C° 0.2 mm 3 mps 680 mmHg 90%
06:00 +8°C° 0.2 mm 3 mps 679 mmHg 93%
07:00 +8°C° 0.2 mm 3 mps 679 mmHg 96%
08:00 +9°C° 0.4 mm 3 mps 679 mmHg 94%
09:00 +10°C° 0.4 mm 3 mps 679 mmHg 93%
10:00 +10°C° 0.4 mm 3 mps 680 mmHg 92%
11:00 +11°C° 0.4 mm 3 mps 680 mmHg 89%
12:00 +11°C° 0.4 mm 3 mps 680 mmHg 86%
13:00 +13°C° 0.4 mm 2 mps 681 mmHg 84%
14:00 +13°C° 0.3 mm 2 mps 681 mmHg 83%
15:00 +12°C° 0.3 mm 2 mps 681 mmHg 82%
16:00 +12°C° 0.3 mm 2 mps 681 mmHg 82%
17:00 +11°C° 0 mm 1 mps 681 mmHg 85%
18:00 +10°C° 0 mm 1 mps 681 mmHg 87%
19:00 +8°C° 0 mm 1 mps 681 mmHg 90%
20:00 +8°C° 0 mm 1 mps 681 mmHg 91%
21:00 +7°C° 0 mm 1 mps 681 mmHg 92%
22:00 +6°C° 0 mm 0 mps 681 mmHg 93%
23:00 +7°C° 0 mm 1 mps 681 mmHg 92%

24 September, Thursday

Time Temperature Precipitation Wind Pressure Humidity
00:00 +7°C° 0 mm 1 mps 681 mmHg 92%
01:00 +7°C° 0 mm 1 mps 682 mmHg 92%
02:00 +6°C° 0.1 mm 1 mps 681 mmHg 93%
03:00 +4°C° 0.1 mm 2 mps 681 mmHg 94%
04:00 +4°C° 0.1 mm 2 mps 680 mmHg 94%
05:00 +3°C° 0.4 mm 2 mps 679 mmHg 95%
06:00 +3°C° 0.4 mm 2 mps 678 mmHg 96%
07:00 +3°C° 0.4 mm 2 mps 678 mmHg 97%
08:00 +3°C° 2.1 mm 2 mps 677 mmHg 97%
09:00 +3°C° 2.1 mm 2 mps 676 mmHg 97%
10:00 +3°C° 2.1 mm 2 mps 675 mmHg 98%
11:00 +4°C° 2.2 mm 2 mps 675 mmHg 97%
12:00 +4°C° 2.2 mm 3 mps 675 mmHg 96%
13:00 +5°C° 2.2 mm 3 mps 675 mmHg 95%
14:00 +6°C° 0.4 mm 5 mps 675 mmHg 91%
15:00 +5°C° 0.4 mm 6 mps 676 mmHg 86%
16:00 +6°C° 0.4 mm 8 mps 676 mmHg 82%
17:00 +4°C° 0 mm 6 mps 677 mmHg 84%
18:00 +4°C° 0 mm 4 mps 677 mmHg 86%
19:00 +3°C° 0 mm 3 mps 677 mmHg 89%
20:00 +2°C° 0 mm 3 mps 678 mmHg 89%
21:00 +3°C° 0 mm 2 mps 679 mmHg 89%
22:00 +2°C° 0 mm 2 mps 680 mmHg 89%
23:00 +2°C° 0 mm 2 mps 680 mmHg 89%

25 September, Friday

Time Temperature Precipitation Wind Pressure Humidity
00:00 +1°C° 0 mm 2 mps 681 mmHg 89%
01:00 -1°C° 0 mm 2 mps 681 mmHg 89%
02:00 +1°C° 0 mm 1 mps 681 mmHg 89%
03:00 +1°C° 0 mm 1 mps 681 mmHg 90%
04:00 0°C° 0 mm 0 mps 682 mmHg 90%
05:00 +1°C° 0 mm 1 mps 682 mmHg 89%
06:00 +2°C° 0 mm 1 mps 683 mmHg 88%
07:00 +2°C° 0 mm 1 mps 683 mmHg 88%
08:00 +2°C° 1.4 mm 1 mps 683 mmHg 91%
09:00 +1°C° 1.4 mm 2 mps 684 mmHg 95%
10:00 +2°C° 1.4 mm 2 mps 684 mmHg 98%
11:00 +1°C° 3.2 mm 2 mps 684 mmHg 99%
12:00 +1°C° 3.2 mm 2 mps 684 mmHg 99%
13:00 +1°C° 3.2 mm 2 mps 684 mmHg 99%
14:00 +1°C° 3 mm 2 mps 684 mmHg 99%
15:00 +1°C° 3 mm 2 mps 684 mmHg 99%
16:00 +1°C° 3 mm 2 mps 684 mmHg 99%
17:00 +1°C° 2.3 mm 2 mps 684 mmHg 99%
18:00 +1°C° 2.3 mm 2 mps 684 mmHg 99%
19:00 +1°C° 2.3 mm 2 mps 684 mmHg 99%
20:00 +1°C° 1.8 mm 2 mps 684 mmHg 99%
21:00 +1°C° 1.8 mm 2 mps 684 mmHg 99%
22:00 +1°C° 1.8 mm 2 mps 685 mmHg 99%
23:00 +1°C° 1.5 mm 2 mps 684 mmHg 99%

26 September, Saturday

Time Temperature Precipitation Wind Pressure Humidity
00:00 +1°C° 1.5 mm 2 mps 684 mmHg 99%
01:00 +1°C° 1.5 mm 2 mps 684 mmHg 99%
02:00 +1°C° 1.3 mm 2 mps 684 mmHg 99%
03:00 +1°C° 1.3 mm 2 mps 684 mmHg 99%
04:00 +1°C° 1.3 mm 2 mps 683 mmHg 99%
05:00 +1°C° 1.1 mm 2 mps 684 mmHg 99%
06:00 +1°C° 1.1 mm 2 mps 684 mmHg 99%
07:00 +1°C° 1.1 mm 2 mps 684 mmHg 99%
08:00 +1°C° 0.2 mm 2 mps 684 mmHg 99%
09:00 +2°C° 0.2 mm 1 mps 684 mmHg 99%
10:00 +3°C° 0.2 mm 1 mps 685 mmHg 99%
11:00 +3°C° 0 mm 1 mps 685 mmHg 99%
12:00 +3°C° 0 mm 1 mps 685 mmHg 99%
13:00 +3°C° 0 mm 1 mps 686 mmHg 99%
14:00 +3°C° 0.2 mm 1 mps 686 mmHg 99%
15:00 +3°C° 0.2 mm 1 mps 686 mmHg 99%
16:00 +3°C° 0.2 mm 1 mps 686 mmHg 99%
17:00 +2°C° 0.3 mm 1 mps 687 mmHg 99%
18:00 +2°C° 0.3 mm 1 mps 687 mmHg 99%
19:00 +2°C° 0.3 mm 1 mps 688 mmHg 99%
20:00 +2°C° 0.1 mm 1 mps 688 mmHg 99%
21:00 +2°C° 0.1 mm 1 mps 689 mmHg 99%
22:00 +2°C° 0.1 mm 1 mps 689 mmHg 99%
23:00 +2°C° 0 mm 1 mps 689 mmHg 99%
Show more